TimeCST,TemperatureF,Dew PointF,Humidity,Sea Level PressureIn,VisibilityMPH,Wind Direction,Wind SpeedMPH,Gust SpeedMPH,PrecipitationIn,Events,Conditions,WindDirDegrees,DateUTC
12:53 AM,36.0,28.9,76,30.11,10.0,Calm,Calm,-,N/A,,Clear,0,2014-02-18 06:53:00
1:53 AM,33.1,28.0,82,30.10,10.0,Calm,Calm,-,N/A,,Clear,0,2014-02-18 07:53:00
2:53 AM,30.9,27.0,85,30.09,10.0,Calm,Calm,-,N/A,,Clear,0,2014-02-18 08:53:00
3:53 AM,30.0,27.0,88,30.08,10.0,Calm,Calm,-,N/A,,Clear,0,2014-02-18 09:53:00
4:53 AM,28.0,26.1,92,30.09,10.0,Calm,Calm,-,N/A,,Clear,0,2014-02-18 10:53:00
5:53 AM,27.0,25.0,92,30.07,10.0,Calm,Calm,-,N/A,,Clear,0,2014-02-18 11:53:00
6:53 AM,27.0,25.0,92,30.10,10.0,Calm,Calm,-,N/A,,Clear,0,2014-02-18 12:53:00
7:53 AM,30.0,27.0,88,30.09,10.0,Calm,Calm,-,N/A,,Clear,0,2014-02-18 13:53:00
8:53 AM,41.0,32.0,70,30.10,10.0,Calm,Calm,-,N/A,,Clear,0,2014-02-18 14:53:00
9:53 AM,57.0,36.0,45,30.05,10.0,Variable,3.5,-,N/A,,Clear,0,2014-02-18 15:53:00
10:53 AM,64.0,37.0,37,30.03,10.0,SSE,9.2,17.3,N/A,,Clear,150,2014-02-18 16:53:00
11:53 AM,66.0,37.9,36,30.01,10.0,South,5.8,-,N/A,,Clear,170,2014-02-18 17:53:00
12:53 PM,69.1,42.1,38,29.94,10.0,Variable,3.5,17.3,N/A,,Clear,0,2014-02-18 18:53:00
1:50 PM,73.4,46.4,38,29.90,0.2,Variable,3.5,-,N/A,,Haze,0,2014-02-18 19:50:00
1:53 PM,73.0,46.9,39,29.91,0.2,Variable,5.8,-,N/A,,Haze,0,2014-02-18 19:53:00
2:10 PM,72.0,46.9,41,29.89,0.2,South,9.2,19.6,N/A,,Haze,190,2014-02-18 20:10:00
2:45 PM,72.0,48.0,43,29.87,0.5,SSW,9.2,-,N/A,,Haze,210,2014-02-18 20:45:00
2:53 PM,72.0,48.9,44,29.88,0.5,SW,10.4,17.3,N/A,,Haze,220,2014-02-18 20:53:00
3:04 PM,72.0,50.0,46,29.87,0.8,SW,8.1,-,N/A,,Haze,220,2014-02-18 21:04:00
3:11 PM,72.0,51.1,48,29.86,1.0,SW,8.1,-,N/A,,Haze,230,2014-02-18 21:11:00
3:41 PM,72.0,51.1,48,29.85,2.5,Variable,4.6,-,N/A,,Haze,0,2014-02-18 21:41:00
3:53 PM,71.1,52.0,51,29.86,3.0,Variable,6.9,-,N/A,,Haze,0,2014-02-18 21:53:00
4:53 PM,70.0,52.0,53,29.86,3.0,Variable,5.8,-,N/A,,Haze,0,2014-02-18 22:53:00
5:53 PM,68.0,54.0,61,29.84,4.0,Variable,5.8,-,N/A,,Haze,0,2014-02-18 23:53:00
6:53 PM,66.9,57.0,70,29.84,7.0,Variable,3.5,-,N/A,,Clear,0,2014-02-19 00:53:00
7:53 PM,66.0,57.9,75,29.87,6.0,Variable,3.5,-,N/A,,Haze,0,2014-02-19 01:53:00
8:53 PM,66.0,57.9,75,29.88,4.0,Calm,Calm,-,N/A,,Haze,0,2014-02-19 02:53:00
9:53 PM,64.9,57.0,75,29.88,3.0,Calm,Calm,-,N/A,,Haze,0,2014-02-19 03:53:00
10:20 PM,64.0,57.0,78,29.89,2.5,Calm,Calm,-,N/A,,Haze,0,2014-02-19 04:20:00
10:45 PM,64.0,57.0,78,29.90,4.0,Variable,3.5,-,N/A,,Haze,0,2014-02-19 04:45:00
10:53 PM,64.0,57.0,78,29.89,5.0,Calm,Calm,-,N/A,,Haze,0,2014-02-19 04:53:00
11:53 PM,60.1,57.0,90,29.89,4.0,Calm,Calm,-,N/A,,Clear,0,2014-02-19 05:53:00